Regional Weather Roundup
Issued by NWS

Home | Current Version | Previous Version | Text Only | Print | Product List | Glossary On
Versions: 1 2 3 4 5 6 7 8 9 10 11 12 13 14 15 16 17 18 19 20 21 22 23 24 25 26 27 28 29 30 31 32 33 34 35 36 37 38 39 40 41 42 43 44 45 46 47 48 49 50
000
ASCA42 TJSJ 251111
RWRPR
PUERTO RICO/U.S. VIRGIN ISLANDS HOURLY WEATHER ROUNDUP
NATIONAL WEATHER SERVICE SAN JUAN PR
700 AM AST SAT OCT 25 2014

PRZ001-004-251200-
PUERTO RICO

CITY           SKY/WX    TMP DP  RH WIND       PRES   REMARKS
SAN JUAN LMM   PTCLDY    81  75  83 CALM      29.92R
AGUADILLA      CLEAR     75  72  88 CALM      29.93
CEIBA          CLEAR     79  75  89 CALM      29.94R
$$

PRZ006-007-251200-
U.S. VIRGIN ISLANDS

CITY           SKY/WX    TMP DP  RH WIND       PRES   REMARKS
CHARLOTTE AMA  PTCLDY    81  75  83 E7        29.91
CHRISTIANSTED  PTCLDY    79  75  89 N5        29.93
$$

HOURLY WEATHER ROUNDUP FOR THE NEWS MEDIA

CITY           SKY/WX    TMP DP  RH WIND       PRES   REMARKS
MIAMI          PTCLDY    70  62  76 NW6       29.88R
ORLANDO        PTCLDY    64  53  67 N7        29.98R
NEW YORK       PTCLDY    52  36  54 NW10      29.87F
NEWARK         PTCLDY    48  35  60 SW3       29.87F
CHICAGO        CLOUDY    57  54  89 W8        29.91R
HARTFORD       CLEAR     43  40  89 SW3       29.77S
DALLAS         CLEAR     66  58  75 SE8       30.11R
PHILADELPHIA   PTCLDY    49  36  61 W6        29.91F



USA.gov is the U.S. government's official web portal to all federal, state and local government web resources and services.